Location: Unspecified
(42.9300°N, 71.1866°W)
Time: 03:09:14
(UTC-04:00)

Envisat - Visible Passes

Search period start: 25 September 2016 00:00
Search period end: 05 October 2016 00:00
Orbit: 764 x 766 km, 98.3° (Epoch: 24 September)

Date Brightness Start Highest point End Pass type
(mag) Time Alt. Az. Time Alt. Az. Time Alt. Az.
25 Sep 3.2 20:50:02 54° NE 20:50:02 54° NE 20:54:33 10° N visible
25 Sep 5.5 22:30:15 16° WNW 22:30:15 16° WNW 22:32:20 10° NW visible
26 Sep 4.0 20:13:04 27° ENE 20:13:07 27° ENE 20:17:21 10° N visible
26 Sep 4.5 21:53:17 32° WNW 21:53:17 32° WNW 21:56:42 10° NNW visible
27 Sep 4.7 19:36:06 13° ENE 19:36:52 14° ENE 19:39:18 10° NNE visible
27 Sep 3.5 21:16:18 55° NNW 21:16:18 55° NNW 21:20:17 10° NNW visible
28 Sep 3.5 20:39:20 42° NE 20:39:20 42° NE 20:43:25 10° N visible
28 Sep 5.4 22:19:33 19° WNW 22:19:33 19° WNW 22:21:44 10° NW visible
29 Sep 4.3 20:02:22 22° ENE 20:02:22 22° ENE 20:06:03 10° NNE visible
29 Sep 4.4 21:42:35 35° NW 21:42:35 35° NW 21:45:49 10° NNW visible
30 Sep 4.9 19:25:23 11° ENE 19:26:01 11° ENE 19:27:14 10° NE visible
30 Sep 3.6 21:05:36 48° N 21:05:36 48° N 21:09:16 10° N visible
30 Sep 6.0 22:45:49 10° WNW 22:45:49 10° WNW 22:45:55 10° WNW visible
01 Oct 3.9 20:28:38 33° NE 20:28:38 33° NE 20:32:16 10° N visible
01 Oct 5.3 22:08:51 21° WNW 22:08:51 21° WNW 22:11:02 10° NW visible
02 Oct 4.5 19:51:39 18° ENE 19:51:39 18° ENE 19:54:41 10° NNE visible
02 Oct 4.4 21:31:53 35° NW 21:31:53 35° NW 21:34:52 10° NNW visible
03 Oct 3.9 20:54:54 39° N 20:54:54 39° N 20:58:11 10° N visible
03 Oct 5.9 22:35:07 12° WNW 22:35:07 12° WNW 22:35:43 10° NW visible
04 Oct 4.2 20:17:56 26° NE 20:17:56 26° NE 20:21:03 10° N visible
04 Oct 5.2 21:58:09 22° NW 21:58:09 22° NW 22:00:14 10° NNW visible
